This is the latest recevied weather packets stored in our database for station/object KD9WYV. If no packets are shown the sender has not sent any weather packets the latest 1 day(s).
| Time | Temp. | Humidity | Pressure | Rain* | Wind** | Luminosity | Snow |
|---|---|---|---|---|---|---|---|
| 1777999656 | 13.33° C | 92% | 1009.3 hPa | 0 mm | 0.89 m/s, 271° | 33 W/m² | - |
| 1777999353 | 14.44° C | 92% | 1009.3 hPa | 0 mm | 0.89 m/s, 308° | 30 W/m² | - |
| 1777999051 | 14.44° C | 93% | 1009.4 hPa | 0 mm | 1.34 m/s, 306° | 51 W/m² | - |
| 1777998750 | 14.44° C | 94% | 1009.3 hPa | 0 mm | 1.34 m/s, 224° | 69 W/m² | - |
| 1777998447 | 15° C | 94% | 1009.5 hPa | 1.78 mm | 0.89 m/s, 223° | 138 W/m² | - |
| 1777998144 | 14.44° C | 94% | 1009.5 hPa | 1.78 mm | 0.89 m/s, 298° | 99 W/m² | - |
| 1777997840 | 14.44° C | 94% | 1009.3 hPa | 1.78 mm | 0.89 m/s, 258° | 271 W/m² | - |
| 1777997538 | 14.44° C | 94% | 1009.4 hPa | 0 mm | 1.34 m/s, 301° | 196 W/m² | - |
| 1777997235 | 14.44° C | 94% | 1009.6 hPa | 1.27 mm | 0.45 m/s, 324° | 119 W/m² | - |
| 1777996933 | 14.44° C | 93% | 1009.3 hPa | 1.27 mm | 0.45 m/s, 320° | 105 W/m² | - |
| 1777996629 | 14.44° C | 93% | 1009.4 hPa | 3.05 mm | 0.89 m/s, 254° | 128 W/m² | - |
| 1777996326 | 14.44° C | 93% | 1009.4 hPa | 4.83 mm | 0.89 m/s, 300° | 183 W/m² | - |
| 1777996022 | 15° C | 93% | 1009.4 hPa | 1.78 mm | 0.89 m/s, 334° | 108 W/m² | - |
| 1777995718 | 15° C | 92% | 1009.4 hPa | 0 mm | 1.34 m/s, 325° | 40 W/m² | - |
| 1777995414 | 15° C | 92% | 1009.2 hPa | 0 mm | 0.45 m/s, 296° | 45 W/m² | - |
| 1777995112 | 15° C | 92% | 1009 hPa | 0 mm | 0 m/s | 112 W/m² | - |
| 1777994809 | 15° C | 92% | 1009.1 hPa | 0 mm | 0.45 m/s, 311° | 98 W/m² | - |
| 1777994504 | 15° C | 92% | 1009.3 hPa | 0 mm | 0.89 m/s, 285° | 82 W/m² | - |
| 1777994200 | 15° C | 91% | 1009.1 hPa | 1.27 mm | 0.89 m/s, 298° | 115 W/m² | - |
| 1777993898 | 15° C | 91% | 1009 hPa | 1.27 mm | 1.34 m/s, 273° | 108 W/m² | - |
| 1777993593 | 15° C | 91% | 1009.3 hPa | 0 mm | 0 m/s | 101 W/m² | - |
| 1777993291 | 15° C | 90% | 1009.3 hPa | 1.78 mm | 1.34 m/s, 296° | 91 W/m² | - |
| 1777992986 | 15° C | 90% | 1009.4 hPa | 1.78 mm | 0.45 m/s, 292° | 48 W/m² | - |
| 1777992685 | 15° C | 89% | 1009.2 hPa | 0 mm | 0.45 m/s, 286° | 75 W/m² | - |
| 1777992382 | 15° C | 89% | 1009.2 hPa | 0 mm | 2.68 m/s, 246° | 142 W/m² | - |
* Rain latest hour (hover to see other rain measurements)
** Current wind speed in m/s (hover to see current wind gust speed)